www.pogodaiklimat.ru

Погода и климат >> Архив погоды >> Россия >> Чукотка >> Айон Остров


ПОГОДА на Айон Острове

  • Прогноз погоды на Айон Острове
  • Монитор погоды на Айон Острове

АРХИВ ПОГОДЫ на Айон Острове

Время (UTC), дата Ветер
(напр.,м/с)
 
Видим.   Явления Облачность Т
(С)
Тd
(С)
f
(%)
Тe
(С)
Тes
(С)
Комфортность P
(гПа)
Po
(гПа)
Тmin
(С)
Tmax
(С)
R
(мм)
R24
(мм)
S
(см)
12 16.08 В 4-5
{6}
20 км 4/4 300 м
[St]
+0.3 -0.8 92 -5 -5 1033.4 1031.6
15 16.08 ЮВ 4-5
{6}
20 км 3/0
[Ac trans]
-1.3 -2.2 94 -7 -7 1033.9 1032.1
18 16.08 ЮВ 4-5
{5}
4000 м дымка 10/0
[Ac und]
+2.7 +2.2 97 -2 -2 1034.6 1032.9
21 16.08 ЮВ 6-9
{10}
20 км 10/0
[Ac und]
+6.2 +5.3 94 +1 +2 1035.1 1033.4 -1.7
00 17.08 ЮВ 8-11
{11}
20 км 4/0
[Ac trans Ci fib]
+9.6 +4.2 69 +6 +7 1035.0 1033.3
03 17.08 ЮВ 9-12
{13}
20 км 3/0
[Ci fib]
+11.6 +3.2 56 +8 +9 1034.2 1032.5
06 17.08 ЮВ 8-12
{13}
20 км ясно +12.0 +4.7 61 +9 +9 1033.6 1031.9
09 17.08 В 4-5
{12}
20 км 3/0
[Ci fib]
+6.7 +4.5 86 +3 +3 1033.0 1031.3 +12.0
12 17.08 ЮВ 6-8
{8}
20 км 3/0
[Ci fib]
+6.5 +4.3 86 +2 +2 1032.4 1030.7
15 17.08 ЮВ 6-8
{10}
20 км 3/0
[Ci fib]
+5.9 +4.5 91 +1 +1 1032.0 1030.3
18 17.08 ЮВ 7-10
{10}
20 км ясно +7.5 +5.6 88 +3 +3 1031.9 1030.2
21 17.08 ЮВ 9-11
{13}
20 км ясно +11.3 +6.6 73 +8 +8 1031.7 1030.0 +5.0
00 18.08 ЮВ 10-12
{14}
20 км 4/0
[Ci fib]
+13.9 +7.0 63 +11 +11 1030.7 1029.0
03 18.08 ЮВ 10-14
{16}
20 км 3/0
[Ci fib]
+15.8 +6.7 55 +14 +14 1029.6 1027.9
06 18.08 ЮВ 11-14
{15}
20 км 3/0
[Ci fib]
+14.8 +7.4 61 +12 +12 1028.5 1026.8
09 18.08 ЮВ 10-12
{15}
20 км 6/0
[Ac trans Ci fib]
+12.0 +7.3 73 +8 +8 1027.3 1025.6 +15.8
12 18.08 ЮВ 7-10
{15}
20 км 10/0
[Ac und]
+10.3 +7.7 84 +7 +7 1026.2 1024.5
15 18.08 ЮВ 8-10
{11}
20 км 10/0
[Ac und]
+9.8 +7.7 87 +6 +6 1025.2 1023.5
18 18.08 ЮВ 7-9
{10}
20 км 10/0
[Ac und]
+9.8 +8.0 89 +6 +6 1024.8 1023.1
21 18.08 ЮВ 7-9
{10}
20 км 10/0
[Ac und]
+11.7 +9.1 84 +9 +9 1024.8 1023.1 +9.2
00 19.08 ЮЗ 4-5
{10}
20 км 10/0
[Ac und]
+7.0 +5.2 88 +3 +5 1025.3 1023.6 +6.0
03 19.08 ЮЗ 4-4
{5}
20 км 10/0
[Ac und]
+6.1 +4.5 89 +2 +3 1025.4 1023.7
06 19.08 ЮЗ 2-2
{5}
20 км 10/0
[Ac und]
+7.7 +5.8 88 +6 +6 1025.5 1023.8
09 19.08 В 1-2
{3}
20 км 8/0
[Ac trans]
+7.6 +6.1 90 +7 +7 1025.9 1024.2 +11.7
12 19.08 ЮВ 5-5
{6}
20 км 3/0
[Ac trans]
+6.6 +5.0 90 +2 +2 1025.8 1024.1
15 19.08 ЮВ 3-4
{7}
20 км 3/0
[Ci fib]
+6.0 +4.6 91 +3 +3 1025.8 1024.1
18 19.08 ЮВ 5-6
{6}
20 км ясно +8.2 +6.7 90 +4 +5 1025.8 1024.1
21 19.08 ЮВ 6-8
{9}
20 км ясно +13.6 +10.4 81 +11 +13 1025.1 1023.4 +5.9
00 20.08 Ю 8-9
{10}
20 км 3/0
[Ci fib]
+16.2 +8.9 62 +15 +16 1024.4 1022.7
03 20.08 ЮВ 7-8
{10}
20 км 4/0
[Ci fib]
+17.2 +8.6 57 +16 +17 1023.5 1021.8
06 20.08 ЮВ 6-8
{9}
20 км 6/0
[Ac trans Ci fib]
+16.0 +8.0 59 +15 +15 1022.4 1020.7
09 20.08 ЮВ 5-6
{8}
20 км 4/0
[Ac trans]
+11.3 +8.5 83 +9 +9 1022.0 1020.3 +17.3
12 20.08 ЮВ 4-5
{16}
20 км 4/0
[Ac trans]
+9.0 +7.4 90 +6 +6 1020.8 1019.1
15 20.08 Ю 7-8
{8}
20 км 4/0
[Ac trans]
+8.5 +7.1 91 +4 +4 1019.7 1018.0
18 20.08 Ю 6-8
{8}
20 км 6/0
[Ac trans Ci fib]
+8.6 +7.7 94 +5 +5 1019.1 1017.4
21 20.08 Ю 4-5
{8}
20 км 8/0
[Ac trans Ci fib]
+12.6 +9.6 82 +11 +12 1018.5 1016.8 +8.0
00 21.08 С 2-3
{5}
20 км 3/0
[Ci fib]
+8.7 +6.4 85 +7 +12 1017.9 1016.2 +7.7
03 21.08 З 2-3
{4}
20 км 3/0
[Ci fib]
+8.9 +7.0 88 +7 +12 1017.4 1015.7
06 21.08 З 2-3
{4}
20 км 4/0
[Ci fib]
+7.0 +5.5 90 +5 +6 1017.1 1015.4
09 21.08 СЗ 4-5
{5}
200 м туман ?/? +4.3 +4.3 100 -0 -0 1017.4 1015.7 +12.6
12 21.08 СЗ 3-4
{5}
200 м туман ?/? +3.6 +3.6 100 -1 -1 1017.6 1015.9
15 21.08 СЗ 4-5
{5}
200 м туман ?/? +4.0 +4.0 100 -1 -1 1017.8 1016.1
18 21.08 С 6-8
{8}
500 м туман ?/? +2.3 +2.2 99 -4 -4 1019.2 1017.4
21 21.08 С 5-7
{8}
500 м туман ?/? +2.2 +2.2 100 -4 -4 1021.0 1019.2 +1.9
00 22.08 С 4-5
{7}
20 км в посл. час туман 10/10 150 м
[St]
+3.2 +2.2 93 -2 -2 1022.1 1020.4
03 22.08 С 5-6
{7}
20 км 10/10 120 м
[St]
+3.6 +2.3 91 -2 -2 1023.2 1021.5
06 22.08 С 5-6
{7}
10 км 10/10 150 м
[St]
+3.4 +2.4 93 -2 -2 1023.9 1022.2
09 22.08 С 2-3
{6}
20 км 10/10 180 м
[St]
+3.3 +2.4 94 0 0 1024.5 1022.8 +3.8
12 22.08 СВ 2-3
{4}
4000 м дымка 10/10 120 м
[St]
+2.4 +1.9 96 -1 -1 1024.8 1023.0
15 22.08 С 2-3
{4}
4000 м дымка 10/10 120 м
[St]
+2.5 +2.0 96 -1 -1 1024.6 1022.9
18 22.08 С 2-2
{3}
20 км 10/6 240 м
[St Ac und]
+3.0 +2.0 93 -0 -0 1024.7 1023.0
21 22.08 З 1-2
{2}
20 км 10/3 300 м
[St Ac und]
+3.7 +2.4 91 +2 +3 1024.6 1022.9 +1.9
00 23.08 СЗ 2-2
{3}
20 км 10/0
[Ac und]
+4.7 +3.1 89 +2 +4 1024.2 1022.5
03 23.08 С 2-3
{3}
20 км 4/0
[Ac trans]
+6.4 +3.2 80 +4 +8 1023.1 1021.4
06 23.08 СВ 4-6
{6}
20 км 4/0
[Ac trans Ci fib]
+8.3 +3.4 71 +5 +6 1021.6 1019.9
09 23.08 В 3-4
{6}
20 км 3/0
[Ac trans]
+4.7 +1.9 82 +1 +1 1020.9 1019.2 +8.4

 

Местоположение метеостанции Айон Остров (Чукотка, Россия): широта 69.93 долгота 167.90 высота над уровнем моря 14 м.

В архиве по умолчанию представлена погода на Айон Острове за последнюю неделю. Архивные данные за месяц целиком и за предыдущие месяцы, начиная с января 2011 года, Вы можете получить, выбрав интересующий диапазон дат из раскрывающегося списка и нажав кнопку "Ввод!".


*Определитесь, кто Вы:
робот инопланетянин человек

Внимание! Время в таблицах - всемирное. Для получения местного времени необходимо прибавить поправку, которая равна 12 ч.

Смотрите также архив погоды в соседних городах и на ближайших метеорологических станциях:

Погода в Раучуе (Чукотка, Россия) (72 км)
Погода в Певеке (Чукотка, Россия) (92 км)
Погода в Валькаркае (Чукотка, Россия) (115 км)
Погода на 21 км (Чукотка, Россия) (117 км)
Погода в Чауне (Чукотка, Россия) (160 км)
Погода в Комсомольской (Чукотка, Россия) (211 км)
Погода в Билибино (Чукотка, Россия) (217 км)
Погода в Бухте Амбарчик (Чукотка, Россия) (218 км)
Погода в Островном (Чукотка, Россия) (252 км)
Погода в Паляваам-Глубокой (Чукотка, Россия) (257 км)

Пояснения к столбцам:

Ветер - указаны скорость ветра в м/с - средняя за 10 мин, порывы в срок и между сроками (в фигурных скобках) и направление, откуда дует ветер: С - северный, СВ - северо-восточный, В - восточный, ЮВ - юго-восточный, Ю - южный, ЮЗ - юго-западный, З - западный, СЗ - северо-западный.
Видимость - горизонтальная дальность видимости в метрах или километрах. При видимости от 1 до 10 км при отсутствии осадков обычно наблюдается дымка, при ухудшении видимости до 1 км и менее - туман. В сухую погоду видимость может ухудшаться дымом, пылью или мглою.
Явления - указаны атмосферные явления, наблюдавшиеся в срок или в последний час перед сроком; фигурными скобками обозначены явления, наблюдавшиеся между сроками (за 1-3 часа до срока); квадратными скобками обозначены град или гололедные отложения с указанием их диаметра в мм.
Облачность - указаны через наклонную черту общая и нижняя облачность в баллах и высота нижней границы облаков в метрах; квадратными скобками обозначены формы облаков: Ci - перистые, Cs - перисто-слоистые, Cc - перисто-кучевые, Ac - высококучевые, As - высокослоистые, Sc - слоисто-кучевые, Ns - слоисто-дождевые, Cu - кучевые, Cb - кучево-дождевые. Подробнее классификацию облаков см. в Атласе облаков (PDF).
T - Температура воздуха - температура, измеренная на высоте 2 м над землей.
Td - Температура точки росы - температура, при понижении до которой содержащийся в воздухе водяной пар достигнет насыщения.
f - Относительная влажность воздуха - влажноcть воздуха, измеренная на высоте 2 м над землей.
Te - Эффективная температура - температура, которую ощущает одетый по сезону человек в тени. Характеристика душности погоды. При расчете учитывается влияние влажности воздуха и скорости ветра на теплоощущения человека.
Tes - Эффективная температура на солнце - температура, которую ощущает человек, с поправкой на солнечный нагрев. Характеристика знойности погоды. Зависит от высоты солнца над горизонтом, облачности и скорости ветра. Ночью, в пасмурную погоду, а также при ветре 12 м/с и более поправка равна нулю.
P - Атмосферное давление - приведенное к уровню моря атмосферное давление.
Po - Атмосферное давление - измеренное на уровне метеостанции атмосферное давление.
Tmin - Минимальная температура - минимум температуры воздуха на высоте 2 м над землей.
Tmax - Максимальная температура - максимум температуры воздуха на высоте 2 м над землей.
R - Количество осадков - Количество выпавших осадков за период времени, мм. При наведении курсора мыши на число - период времени, за который выпало указанное количество осадков.
R24 - Количество осадков - Количество выпавших осадков за 24 часа, мм.
S - Снежный покров - Высота снежного покрова, см. При наведении курсора мыши на число - состояние снежного покрова и степень покрытия местности в баллах.